HAZ376 ZPPP-ZSHC

Flight info

Callsign HAZ376
Flight time 2h 15m
Altitude 39100
Route NODIB1Y NODIB W137 LPS A581 IDGAG W80 XSH DCT JDZ DCT TXN G204 OREXA OREXA62
Aircraft A359/H-SDE2E3GHIJ3J4J5LM1ORWXY/LB1D1

Departure

Time 2026-05-04 13:49
Airport Kunming Changshui International Airport (ZPPP)

Arrival

Time 2026-05-04 16:04
Airport Hangzhou Xiaoshan International Airport (ZSHC)
Time Latitude Longitude Altitude Speed Heading
2026-05-04 13:03 25.10979 102.93846 6901 ft 0 kts 39°
2026-05-04 13:33 25.10969 102.93838 6902 ft 2 kts 40°
2026-05-04 13:33 25.10957 102.93826 6902 ft 2 kts 41°
2026-05-04 13:34 25.10949 102.93818 6901 ft 2 kts 43°
2026-05-04 13:34 25.10933 102.93801 6902 ft 2 kts 48°
2026-05-04 13:34 25.10926 102.93792 6902 ft 2 kts 54°
2026-05-04 13:34 25.10918 102.93770 6902 ft 2 kts 105°
2026-05-04 13:35 25.10921 102.93761 6902 ft 1 kts 129°
2026-05-04 13:35 25.10922 102.93760 6902 ft 0 kts 130°
2026-05-04 13:36 25.10912 102.93774 6902 ft 5 kts 128°
2026-05-04 13:37 25.10879 102.93819 6901 ft 10 kts 129°
2026-05-04 13:37 25.10826 102.93892 6901 ft 13 kts 128°
2026-05-04 13:37 25.10766 102.93975 6900 ft 14 kts 128°
2026-05-04 13:37 25.10703 102.94059 6899 ft 14 kts 131°
2026-05-04 13:38 25.10619 102.94175 6899 ft 15 kts 121°
2026-05-04 13:38 25.10616 102.94244 6899 ft 14 kts 69°
2026-05-04 13:38 25.10707 102.94343 6898 ft 14 kts 39°
2026-05-04 13:38 25.10745 102.94377 6898 ft 0 kts 39°
2026-05-04 13:44 25.10762 102.94392 6898 ft 8 kts 38°
2026-05-04 13:44 25.10829 102.94450 6898 ft 17 kts 38°
2026-05-04 13:44 25.10923 102.94531 6897 ft 17 kts 38°
2026-05-04 13:45 25.11014 102.94610 6898 ft 17 kts 38°
2026-05-04 13:45 25.11122 102.94705 6897 ft 22 kts 38°
2026-05-04 13:45 25.11250 102.94815 6897 ft 25 kts 38°
2026-05-04 13:45 25.11393 102.94938 6896 ft 27 kts 38°
2026-05-04 13:46 25.11539 102.95065 6896 ft 27 kts 38°
2026-05-04 13:46 25.11684 102.95196 6895 ft 27 kts 40°
2026-05-04 13:46 25.11829 102.95327 6894 ft 27 kts 37°
2026-05-04 13:46 25.11978 102.95448 6894 ft 26 kts 38°
2026-05-04 13:47 25.12116 102.95567 6894 ft 23 kts 38°
2026-05-04 13:47 25.12216 102.95692 6894 ft 21 kts 87°
2026-05-04 13:47 25.12140 102.95799 6896 ft 17 kts 173°
2026-05-04 13:47 25.12023 102.95726 6895 ft 35 kts 216°
2026-05-04 13:48 25.11662 102.95413 6895 ft 96 kts 218°
2026-05-04 13:48 25.10994 102.94830 6897 ft 148 kts 218°
2026-05-04 13:48 25.10066 102.94017 6967 ft 188 kts 218°
2026-05-04 13:48 25.09007 102.93082 7315 ft 207 kts 219°
2026-05-04 13:49 25.07868 102.92081 8157 ft 204 kts 219°
2026-05-04 13:49 25.06751 102.91122 8864 ft 209 kts 220°
2026-05-04 13:49 25.05558 102.90092 9172 ft 227 kts 220°
2026-05-04 13:49 25.04282 102.88987 9624 ft 237 kts 220°
2026-05-04 13:50 25.02975 102.87855 10232 ft 242 kts 221°
2026-05-04 13:50 25.01607 102.86665 10592 ft 259 kts 221°
2026-05-04 13:50 25.00170 102.85418 11181 ft 265 kts 221°
2026-05-04 13:50 24.98713 102.84154 11880 ft 269 kts 221°
2026-05-04 13:51 24.97251 102.82888 12578 ft 272 kts 222°
2026-05-04 13:51 24.95722 102.81637 13273 ft 278 kts 216°
2026-05-04 13:51 24.93897 102.80855 13949 ft 290 kts 193°
2026-05-04 13:51 24.91853 102.81011 14538 ft 304 kts 165°
2026-05-04 13:52 24.88857 102.84272 15699 ft 321 kts 107°
2026-05-04 13:52 24.88265 102.86654 16269 ft 326 kts 110°
2026-05-04 13:52 24.87185 102.88858 16875 ft 328 kts 123°
2026-05-04 13:53 24.85987 102.90976 17471 ft 333 kts 123°
2026-05-04 13:53 24.84753 102.93166 17910 ft 343 kts 123°
2026-05-04 13:53 24.83459 102.95453 18166 ft 359 kts 123°
2026-05-04 13:54 24.80989 103.00479 18667 ft 391 kts 107°
2026-05-04 13:54 24.80651 103.03483 18878 ft 403 kts 85°
2026-05-04 13:54 24.82846 103.09128 19276 ft 413 kts 42°
2026-05-04 13:55 24.85123 103.11027 19491 ft 412 kts 22°
2026-05-04 13:55 24.90591 103.12678 20128 ft 418 kts 14°
2026-05-04 13:55 24.93199 103.14184 20614 ft 428 kts 29°
2026-05-04 13:56 24.95671 103.16052 21040 ft 433 kts 30°
2026-05-04 13:56 24.98154 103.17950 21518 ft 436 kts 30°
2026-05-04 13:56 25.03162 103.21828 22382 ft 443 kts 31°
2026-05-04 13:57 25.05686 103.23779 22867 ft 445 kts 30°
2026-05-04 13:57 25.08228 103.25741 23358 ft 447 kts 31°
2026-05-04 13:58 25.15920 103.31668 24465 ft 457 kts 30°
2026-05-04 13:58 25.21169 103.35720 25197 ft 464 kts 30°
2026-05-04 13:58 25.23823 103.37771 25595 ft 467 kts 30°
2026-05-04 13:59 25.26500 103.39837 25987 ft 471 kts 30°
2026-05-04 13:59 25.29187 103.41911 26393 ft 474 kts 30°
2026-05-04 13:59 25.34600 103.46096 27191 ft 481 kts 29°
2026-05-04 14:00 25.37348 103.48223 27622 ft 484 kts 28°
2026-05-04 14:00 25.42897 103.52519 28458 ft 489 kts 28°
2026-05-04 14:00 25.45694 103.54686 28842 ft 493 kts 28°
2026-05-04 14:01 25.48513 103.56874 29219 ft 496 kts 28°
2026-05-04 14:01 25.51308 103.59155 29583 ft 505 kts 33°
2026-05-04 14:01 25.55933 103.65148 30273 ft 528 kts 51°
2026-05-04 14:02 25.57928 103.68584 30570 ft 532 kts 52°
2026-05-04 14:02 25.59920 103.72042 30870 ft 534 kts 52°
2026-05-04 14:02 25.61923 103.75509 31215 ft 535 kts 52°
2026-05-04 14:02 25.63938 103.78991 31499 ft 537 kts 52°
2026-05-04 14:03 25.65956 103.82476 31795 ft 539 kts 52°
2026-05-04 14:03 25.67988 103.85986 32075 ft 541 kts 52°
2026-05-04 14:03 25.69997 103.89456 32368 ft 543 kts 52°
2026-05-04 14:03 25.72038 103.92983 32620 ft 545 kts 52°
2026-05-04 14:04 25.76148 104.00092 33100 ft 549 kts 52°
2026-05-04 14:04 25.78211 104.03664 33373 ft 550 kts 52°
2026-05-04 14:04 25.80272 104.07241 33721 ft 549 kts 52°
2026-05-04 14:05 25.84414 104.14342 34375 ft 547 kts 51°
2026-05-04 14:05 25.86500 104.17875 34676 ft 546 kts 51°
2026-05-04 14:05 25.88550 104.21347 35038 ft 543 kts 51°
2026-05-04 14:06 25.90615 104.24852 35349 ft 542 kts 51°
2026-05-04 14:06 25.92676 104.28357 35612 ft 542 kts 51°
2026-05-04 14:06 25.94731 104.31859 35868 ft 542 kts 51°
2026-05-04 14:06 25.96788 104.35370 36168 ft 541 kts 51°
2026-05-04 14:07 25.98830 104.38863 36461 ft 539 kts 51°
2026-05-04 14:07 26.00886 104.42347 36717 ft 537 kts 49°
2026-05-04 14:07 26.03199 104.45552 36946 ft 528 kts 40°
2026-05-04 14:07 26.05831 104.48346 37217 ft 520 kts 35°
2026-05-04 14:08 26.08514 104.50953 37473 ft 518 kts 33°
2026-05-04 14:08 26.11272 104.53541 37661 ft 518 kts 33°
2026-05-04 14:08 26.14040 104.56097 37929 ft 517 kts 32°
2026-05-04 14:08 26.16814 104.58646 38182 ft 516 kts 32°
2026-05-04 14:09 26.22339 104.63731 38655 ft 514 kts 32°
2026-05-04 14:09 26.25088 104.66273 38825 ft 514 kts 32°
2026-05-04 14:10 26.30568 104.71378 39137 ft 514 kts 33°
2026-05-04 14:10 26.36017 104.76467 39215 ft 514 kts 33°
2026-05-04 14:11 26.41491 104.81587 39233 ft 514 kts 32°
2026-05-04 14:11 26.49725 104.89283 39216 ft 515 kts 32°
2026-05-04 14:12 26.55213 104.94424 39202 ft 515 kts 32°
2026-05-04 14:13 26.63200 105.02474 39202 ft 528 kts 44°
2026-05-04 14:13 26.67057 105.09586 39213 ft 541 kts 58°
2026-05-04 14:14 26.70210 105.17274 39183 ft 546 kts 60°
2026-05-04 14:14 26.74777 105.28913 39195 ft 547 kts 60°
2026-05-04 14:15 26.80970 105.44445 39202 ft 546 kts 60°
2026-05-04 14:16 26.85618 105.56096 39198 ft 546 kts 60°
2026-05-04 14:17 26.90232 105.67711 39224 ft 547 kts 60°
2026-05-04 14:18 26.94873 105.79423 39214 ft 548 kts 60°
2026-05-04 14:19 27.01046 105.95055 39209 ft 548 kts 60°
2026-05-04 14:19 27.04109 106.02832 39214 ft 548 kts 60°
2026-05-04 14:20 27.07402 106.10512 39210 ft 545 kts 56°
2026-05-04 14:20 27.10941 106.18023 39212 ft 544 kts 56°
2026-05-04 14:21 27.16212 106.29343 39212 ft 547 kts 56°
2026-05-04 14:21 27.19653 106.36902 39212 ft 547 kts 56°
2026-05-04 14:22 27.23105 106.44526 39211 ft 547 kts 56°
2026-05-04 14:22 27.26567 106.52143 39212 ft 548 kts 56°
2026-05-04 14:23 27.31743 106.63602 39209 ft 549 kts 57°
2026-05-04 14:24 27.35177 106.71195 39213 ft 548 kts 56°
2026-05-04 14:24 27.38623 106.78842 39199 ft 548 kts 57°
2026-05-04 14:25 27.42065 106.86518 39201 ft 550 kts 57°
2026-05-04 14:25 27.47207 106.98048 39201 ft 549 kts 57°
2026-05-04 14:26 27.50627 107.05676 39201 ft 549 kts 56°
2026-05-04 14:26 27.54100 107.13331 39194 ft 549 kts 56°
2026-05-04 14:27 27.57573 107.20998 39224 ft 550 kts 56°
2026-05-04 14:27 27.61036 107.28685 39191 ft 550 kts 56°
2026-05-04 14:28 27.64502 107.36381 39191 ft 550 kts 56°
2026-05-04 14:28 27.67939 107.44028 39189 ft 550 kts 56°
2026-05-04 14:29 27.74853 107.59460 39189 ft 551 kts 57°
2026-05-04 14:30 27.78303 107.67182 39181 ft 551 kts 57°
2026-05-04 14:31 27.83473 107.78782 39182 ft 552 kts 56°
2026-05-04 14:32 27.90494 107.94143 39169 ft 552 kts 56°
2026-05-04 14:32 27.94017 108.01854 39164 ft 552 kts 56°
2026-05-04 14:33 27.97535 108.09579 39168 ft 553 kts 56°
2026-05-04 14:33 28.01046 108.17315 39171 ft 552 kts 56°
2026-05-04 14:34 28.04521 108.24992 39175 ft 551 kts 55°
2026-05-04 14:34 28.08016 108.32718 39168 ft 551 kts 55°
2026-05-04 14:35 28.11504 108.40450 39159 ft 551 kts 55°
2026-05-04 14:35 28.14987 108.48180 39165 ft 551 kts 55°
2026-05-04 14:36 28.18444 108.55863 39168 ft 552 kts 56°
2026-05-04 14:36 28.21927 108.63619 39164 ft 552 kts 56°
2026-05-04 14:37 28.25403 108.71383 39170 ft 553 kts 56°
2026-05-04 14:37 28.28892 108.79172 39172 ft 554 kts 56°
2026-05-04 14:38 28.32351 108.86923 39161 ft 554 kts 56°
2026-05-04 14:38 28.35829 108.94736 39161 ft 555 kts 56°
2026-05-04 14:39 28.39303 109.02551 39159 ft 555 kts 56°
2026-05-04 14:39 28.42766 109.10366 39154 ft 555 kts 56°
2026-05-04 14:40 28.47967 109.22133 39154 ft 556 kts 56°
2026-05-04 14:40 28.51405 109.29946 39155 ft 557 kts 56°
2026-05-04 14:41 28.54865 109.37823 39146 ft 557 kts 56°
2026-05-04 14:42 28.61135 109.54032 39148 ft 564 kts 62°
2026-05-04 14:42 28.63958 109.62295 39142 ft 563 kts 62°
2026-05-04 14:43 28.66804 109.70608 39149 ft 563 kts 62°
2026-05-04 14:43 28.69763 109.78847 39143 ft 562 kts 61°
2026-05-04 14:44 28.72749 109.87094 39143 ft 563 kts 61°
2026-05-04 14:44 28.75717 109.95358 39143 ft 564 kts 61°
2026-05-04 14:45 28.78649 110.03579 39141 ft 564 kts 62°
2026-05-04 14:45 28.81592 110.11864 39146 ft 564 kts 62°
2026-05-04 14:46 28.84533 110.20154 39163 ft 564 kts 62°
2026-05-04 14:46 28.87474 110.28443 39141 ft 563 kts 62°
2026-05-04 14:47 28.90411 110.36740 39143 ft 564 kts 62°
2026-05-04 14:47 28.93332 110.45049 39143 ft 564 kts 62°
2026-05-04 14:48 28.96234 110.53308 39135 ft 565 kts 62°
2026-05-04 14:48 28.99154 110.61636 39132 ft 565 kts 62°
2026-05-04 14:49 29.02072 110.69978 39131 ft 566 kts 62°
2026-05-04 14:49 29.04995 110.78317 39131 ft 564 kts 62°
2026-05-04 14:50 29.07928 110.86578 39131 ft 565 kts 62°
2026-05-04 14:50 29.10884 110.94907 39126 ft 566 kts 62°
2026-05-04 14:51 29.13836 111.03253 39121 ft 566 kts 62°
2026-05-04 14:51 29.16773 111.11602 39125 ft 566 kts 62°
2026-05-04 14:52 29.19691 111.19909 39117 ft 566 kts 62°
2026-05-04 14:52 29.22621 111.28279 39127 ft 566 kts 62°
2026-05-04 14:53 29.25540 111.36638 39116 ft 566 kts 62°
2026-05-04 14:53 29.28456 111.45004 39116 ft 566 kts 63°
2026-05-04 14:54 29.31373 111.53388 39116 ft 566 kts 63°
2026-05-04 14:54 29.34287 111.61764 39114 ft 565 kts 62°
2026-05-04 14:55 29.38001 111.69474 39115 ft 554 kts 51°
2026-05-04 14:55 29.42189 111.76895 39116 ft 553 kts 49°
2026-05-04 14:56 29.46432 111.84252 39112 ft 554 kts 49°
2026-05-04 14:56 29.50676 111.91643 39114 ft 554 kts 50°
2026-05-04 14:57 29.54898 111.99043 39111 ft 554 kts 50°
2026-05-04 14:57 29.59085 112.06408 39111 ft 554 kts 50°
2026-05-04 14:58 29.63297 112.13831 39117 ft 554 kts 50°
2026-05-04 14:58 29.67509 112.21265 39113 ft 556 kts 50°
2026-05-04 14:59 29.71724 112.28718 39109 ft 556 kts 50°
2026-05-04 15:00 29.78003 112.39867 39108 ft 556 kts 50°
2026-05-04 15:00 29.82191 112.47360 39134 ft 557 kts 51°
2026-05-04 15:01 29.88480 112.58630 39107 ft 558 kts 51°
2026-05-04 15:01 29.92676 112.66163 39109 ft 558 kts 51°
2026-05-04 15:02 29.96841 112.73653 39109 ft 558 kts 51°
2026-05-04 15:02 30.01027 112.81194 39114 ft 559 kts 51°
2026-05-04 15:03 30.05216 112.88753 39104 ft 559 kts 51°
2026-05-04 15:03 30.09403 112.96325 39117 ft 559 kts 51°
2026-05-04 15:04 30.13587 113.03906 39119 ft 559 kts 51°
2026-05-04 15:04 30.17736 113.11438 39108 ft 559 kts 51°
2026-05-04 15:05 30.21917 113.19038 39128 ft 561 kts 52°
2026-05-04 15:05 30.26131 113.26605 39110 ft 559 kts 51°
2026-05-04 15:06 30.30375 113.34135 39109 ft 559 kts 51°
2026-05-04 15:07 30.36695 113.45401 39109 ft 559 kts 51°
2026-05-04 15:07 30.40863 113.53016 39134 ft 563 kts 56°
2026-05-04 15:08 30.43563 113.61562 39101 ft 571 kts 78°
2026-05-04 15:08 30.44198 113.70739 39111 ft 573 kts 88°
2026-05-04 15:09 30.44141 113.79980 39112 ft 574 kts 90°
2026-05-04 15:09 30.44024 113.89161 39114 ft 574 kts 90°
2026-05-04 15:10 30.43987 114.03028 39108 ft 574 kts 89°
2026-05-04 15:11 30.44001 114.16913 39113 ft 576 kts 89°
2026-05-04 15:11 30.43998 114.26135 39120 ft 576 kts 90°
2026-05-04 15:12 30.43985 114.35425 39115 ft 576 kts 90°
2026-05-04 15:12 30.43965 114.44714 39120 ft 577 kts 90°
2026-05-04 15:13 30.43938 114.53948 39124 ft 578 kts 90°
2026-05-04 15:13 30.43905 114.63269 39126 ft 578 kts 90°
2026-05-04 15:14 30.43865 114.72564 39138 ft 576 kts 90°
2026-05-04 15:14 30.43819 114.81806 39143 ft 572 kts 90°
2026-05-04 15:15 30.43767 114.91015 39142 ft 571 kts 90°
2026-05-04 15:15 30.43709 115.00156 39148 ft 571 kts 90°
2026-05-04 15:16 30.43609 115.13998 39148 ft 574 kts 90°
2026-05-04 15:16 30.43216 115.23224 39148 ft 573 kts 101°
2026-05-04 15:17 30.42218 115.27678 39149 ft 569 kts 113°
2026-05-04 15:17 30.38708 115.35793 39147 ft 562 kts 126°
2026-05-04 15:17 30.36600 115.39597 39150 ft 560 kts 128°
2026-05-04 15:18 30.32224 115.47061 39154 ft 560 kts 129°
2026-05-04 15:19 30.25760 115.58275 39157 ft 561 kts 128°
2026-05-04 15:19 30.19346 115.69636 39161 ft 565 kts 128°
2026-05-04 15:20 30.15057 115.77244 39156 ft 565 kts 128°
2026-05-04 15:20 30.10757 115.84847 39161 ft 565 kts 129°
2026-05-04 15:21 30.06478 115.92392 39158 ft 565 kts 129°
2026-05-04 15:22 30.00009 116.03770 39160 ft 565 kts 129°
2026-05-04 15:22 29.93526 116.15135 39161 ft 566 kts 129°
2026-05-04 15:23 29.89222 116.22665 39160 ft 566 kts 129°
2026-05-04 15:23 29.84892 116.30228 39162 ft 566 kts 129°
2026-05-04 15:24 29.76196 116.45368 39171 ft 567 kts 129°
2026-05-04 15:25 29.71840 116.52933 39164 ft 567 kts 129°
2026-05-04 15:26 29.65320 116.64232 38737 ft 568 kts 130°
2026-05-04 15:26 29.63138 116.68005 38467 ft 568 kts 130°
2026-05-04 15:26 29.58756 116.75570 37933 ft 568 kts 130°
2026-05-04 15:27 29.56569 116.79343 37679 ft 567 kts 130°
2026-05-04 15:27 29.52192 116.86881 37163 ft 567 kts 130°
2026-05-04 15:28 29.47851 116.94348 36643 ft 566 kts 131°
2026-05-04 15:28 29.45667 116.98094 36407 ft 565 kts 131°
2026-05-04 15:28 29.41296 117.05587 35896 ft 565 kts 131°
2026-05-04 15:29 29.39296 117.09510 35649 ft 575 kts 122°
2026-05-04 15:30 29.38156 117.27771 34746 ft 596 kts 69°
2026-05-04 15:30 29.42838 117.40866 34072 ft 594 kts 64°
2026-05-04 15:31 29.46163 117.49554 33532 ft 596 kts 64°
2026-05-04 15:31 29.47806 117.53919 33275 ft 597 kts 65°
2026-05-04 15:32 29.52659 117.67087 32514 ft 597 kts 65°
2026-05-04 15:32 29.55888 117.75862 32046 ft 595 kts 65°
2026-05-04 15:33 29.59059 117.84564 31537 ft 594 kts 65°
2026-05-04 15:34 29.63805 117.97650 30649 ft 589 kts 65°
2026-05-04 15:34 29.65383 118.01989 30288 ft 586 kts 65°
2026-05-04 15:34 29.68512 118.10598 29419 ft 580 kts 65°
2026-05-04 15:35 29.71569 118.19051 28588 ft 566 kts 66°
2026-05-04 15:35 29.72755 118.23336 28168 ft 560 kts 77°
2026-05-04 15:35 29.73307 118.27745 27757 ft 553 kts 88°
2026-05-04 15:36 29.72937 118.36384 26963 ft 538 kts 97°
2026-05-04 15:36 29.72562 118.40643 26554 ft 533 kts 98°
2026-05-04 15:36 29.72155 118.44867 26161 ft 529 kts 98°
2026-05-04 15:37 29.71744 118.49048 25782 ft 524 kts 98°
2026-05-04 15:37 29.71342 118.53193 25403 ft 518 kts 98°
2026-05-04 15:37 29.70954 118.57286 25027 ft 512 kts 98°
2026-05-04 15:37 29.70574 118.61337 24652 ft 507 kts 98°
2026-05-04 15:38 29.70200 118.65348 24299 ft 501 kts 98°
2026-05-04 15:38 29.69832 118.69311 23935 ft 497 kts 98°
2026-05-04 15:38 29.69473 118.73205 23562 ft 493 kts 97°
2026-05-04 15:38 29.69121 118.77105 23125 ft 489 kts 97°
2026-05-04 15:39 29.68771 118.80986 22693 ft 486 kts 97°
2026-05-04 15:39 29.68423 118.84828 22283 ft 481 kts 97°
2026-05-04 15:39 29.67729 118.92432 21474 ft 474 kts 97°
2026-05-04 15:40 29.67384 118.96189 21068 ft 471 kts 97°
2026-05-04 15:40 29.67040 118.99917 20671 ft 468 kts 97°
2026-05-04 15:40 29.66713 119.03617 20279 ft 465 kts 95°
2026-05-04 15:40 29.66778 119.07321 19889 ft 462 kts 82°
2026-05-04 15:41 29.67586 119.10855 19518 ft 456 kts 65°
2026-05-04 15:41 29.69069 119.14046 19143 ft 450 kts 56°
2026-05-04 15:41 29.70688 119.17053 18803 ft 446 kts 56°
2026-05-04 15:41 29.72336 119.20068 18407 ft 445 kts 55°
2026-05-04 15:42 29.73981 119.23068 17893 ft 442 kts 56°
2026-05-04 15:42 29.75609 119.26040 17401 ft 437 kts 56°
2026-05-04 15:42 29.77219 119.28984 16919 ft 432 kts 56°
2026-05-04 15:42 29.78806 119.31891 16430 ft 425 kts 56°
2026-05-04 15:43 29.80373 119.34758 15975 ft 420 kts 56°
2026-05-04 15:43 29.81920 119.37587 15509 ft 415 kts 57°
2026-05-04 15:43 29.83448 119.40384 15050 ft 410 kts 57°
2026-05-04 15:43 29.84951 119.43140 14600 ft 404 kts 57°
2026-05-04 15:44 29.86418 119.45833 14162 ft 399 kts 57°
2026-05-04 15:44 29.87881 119.48517 13706 ft 394 kts 57°
2026-05-04 15:44 29.89331 119.51180 13205 ft 390 kts 57°
2026-05-04 15:44 29.90764 119.53814 12722 ft 386 kts 57°
2026-05-04 15:45 29.92180 119.56418 12320 ft 380 kts 57°
2026-05-04 15:45 29.93581 119.58998 12091 ft 378 kts 58°
2026-05-04 15:45 29.94973 119.61562 11837 ft 377 kts 57°
2026-05-04 15:45 29.96358 119.64112 11579 ft 375 kts 57°
2026-05-04 15:46 29.97739 119.66658 11349 ft 373 kts 58°
2026-05-04 15:46 29.99092 119.69155 11096 ft 371 kts 58°
2026-05-04 15:46 30.00453 119.71668 10845 ft 369 kts 57°
2026-05-04 15:46 30.01808 119.74169 10617 ft 367 kts 58°
2026-05-04 15:47 30.02700 119.75818 10463 ft 365 kts 58°
2026-05-04 15:47 30.04038 119.78302 10222 ft 363 kts 58°
2026-05-04 15:47 30.05234 119.80861 9997 ft 361 kts 63°
2026-05-04 15:47 30.06342 119.83420 9779 ft 349 kts 63°
2026-05-04 15:48 30.07412 119.85870 9543 ft 335 kts 62°
2026-05-04 15:48 30.08448 119.88215 9343 ft 321 kts 62°
2026-05-04 15:48 30.10414 119.92622 8954 ft 297 kts 62°
2026-05-04 15:49 30.11647 119.95373 8623 ft 285 kts 62°
2026-05-04 15:49 30.12553 119.97394 8368 ft 283 kts 62°
2026-05-04 15:49 30.13152 119.98729 8260 ft 282 kts 62°
2026-05-04 15:49 30.14057 120.00745 8104 ft 283 kts 62°
2026-05-04 15:50 30.15263 120.03439 7953 ft 282 kts 62°
2026-05-04 15:50 30.15860 120.04771 7927 ft 281 kts 62°
2026-05-04 15:50 30.16760 120.06778 7920 ft 281 kts 62°
2026-05-04 15:50 30.17951 120.09438 7916 ft 281 kts 62°
2026-05-04 15:51 30.18558 120.10794 7912 ft 281 kts 62°
2026-05-04 15:51 30.19748 120.13455 7914 ft 281 kts 62°
2026-05-04 15:51 30.20354 120.14811 7912 ft 281 kts 62°
2026-05-04 15:51 30.21240 120.16792 7912 ft 281 kts 62°
2026-05-04 15:52 30.22135 120.18801 7912 ft 281 kts 62°
2026-05-04 15:52 30.23029 120.20811 7913 ft 281 kts 62°
2026-05-04 15:52 30.23923 120.22824 7894 ft 281 kts 62°
2026-05-04 15:52 30.24816 120.24833 7745 ft 281 kts 62°
2026-05-04 15:53 30.25708 120.26839 7513 ft 280 kts 62°
2026-05-04 15:53 30.26598 120.28839 7268 ft 279 kts 62°
2026-05-04 15:53 30.27484 120.30834 7027 ft 278 kts 62°
2026-05-04 15:53 30.28367 120.32823 6905 ft 278 kts 62°
2026-05-04 15:54 30.29236 120.34783 6888 ft 278 kts 62°
2026-05-04 15:54 30.30117 120.36771 6704 ft 277 kts 62°
2026-05-04 15:54 30.30995 120.38750 6480 ft 276 kts 62°
2026-05-04 15:54 30.31870 120.40725 6221 ft 275 kts 62°
2026-05-04 15:55 30.32741 120.42691 5985 ft 274 kts 62°
2026-05-04 15:55 30.33609 120.44652 5909 ft 274 kts 62°
2026-05-04 15:55 30.34479 120.46619 5907 ft 274 kts 62°
2026-05-04 15:55 30.35347 120.48589 5845 ft 274 kts 62°
2026-05-04 15:56 30.36212 120.50553 5645 ft 274 kts 62°
2026-05-04 15:56 30.37070 120.52492 5407 ft 275 kts 62°
2026-05-04 15:56 30.37942 120.54461 5225 ft 270 kts 63°
2026-05-04 15:56 30.38777 120.56351 5102 ft 258 kts 63°
2026-05-04 15:57 30.39573 120.58157 4989 ft 246 kts 63°
2026-05-04 15:57 30.40330 120.59873 4948 ft 234 kts 63°
2026-05-04 15:57 30.41065 120.61546 4929 ft 232 kts 63°
2026-05-04 15:57 30.41610 120.63298 4926 ft 232 kts 82°
2026-05-04 15:58 30.41406 120.65119 4935 ft 230 kts 115°
2026-05-04 15:58 30.40434 120.66515 4762 ft 227 kts 146°
2026-05-04 15:58 30.39070 120.67401 4460 ft 224 kts 156°
2026-05-04 15:58 30.37594 120.67911 4235 ft 222 kts 177°
2026-05-04 15:59 30.36138 120.67482 4041 ft 218 kts 214°
2026-05-04 15:59 30.35066 120.66265 3867 ft 213 kts 234°
2026-05-04 15:59 30.34366 120.64809 3791 ft 202 kts 244°
2026-05-04 15:59 30.33755 120.63358 3689 ft 200 kts 242°
2026-05-04 16:00 30.33123 120.61937 3434 ft 197 kts 241°
2026-05-04 16:00 30.32498 120.60531 3159 ft 197 kts 241°
2026-05-04 16:00 30.31877 120.59116 2881 ft 197 kts 241°
2026-05-04 16:00 30.31268 120.57733 2628 ft 194 kts 241°
2026-05-04 16:01 30.30674 120.56382 2381 ft 181 kts 240°
2026-05-04 16:01 30.30128 120.55142 2167 ft 167 kts 240°
2026-05-04 16:01 30.29620 120.53988 1932 ft 155 kts 239°
2026-05-04 16:01 30.29150 120.52923 1713 ft 143 kts 239°
2026-05-04 16:02 30.28714 120.51934 1540 ft 135 kts 239°
2026-05-04 16:02 30.28287 120.50966 1370 ft 135 kts 239°
2026-05-04 16:02 30.27428 120.49017 1000 ft 137 kts 239°
2026-05-04 16:03 30.27002 120.48050 818 ft 137 kts 239°
2026-05-04 16:03 30.26565 120.47066 652 ft 138 kts 240°
2026-05-04 16:03 30.26126 120.46077 460 ft 138 kts 241°
2026-05-04 16:03 30.25691 120.45086 307 ft 139 kts 242°
2026-05-04 16:04 30.25261 120.44084 109 ft 139 kts 242°
2026-05-04 16:04 30.24534 120.42443 36 ft 77 kts 243°
2026-05-04 16:04 30.24329 120.42184 38 ft 26 kts 214°
2026-05-04 16:05 30.24255 120.42124 38 ft 0 kts 214°
2026-05-04 16:06 30.24248 120.42119 38 ft 4 kts 212°
2026-05-04 16:07 30.24163 120.42120 38 ft 14 kts 158°
2026-05-04 16:07 30.23965 120.42308 38 ft 0 kts 137°